This is the latest recevied weather packets stored in our database for station/object N5CNB. If no packets are shown the sender has not sent any weather packets the latest 10 day(s).
| Time | Temp. | Humidity | Pressure | Rain* | Wind** | Luminosity | Snow |
|---|---|---|---|---|---|---|---|
| 1777765512 | 22.78° C | 50% | 1019.4 hPa | 0 mm | - | - | - |
| 1777764616 | 23.33° C | 47% | 1019.3 hPa | 0 mm | - | - | - |
| 1777763718 | 23.33° C | 48% | 1019.1 hPa | 0 mm | - | - | - |
| 1777762805 | 23.33° C | 47% | 1019.3 hPa | 0 mm | - | - | - |
| 1777761910 | 23.33° C | 48% | 1019.2 hPa | 0 mm | - | - | - |
| 1777761010 | 23.33° C | 48% | 1019.2 hPa | 0 mm | - | - | - |
| 1777760113 | 23.33° C | 47% | 1019.2 hPa | 0 mm | - | - | - |
| 1777759215 | 22.78° C | 50% | 1019.2 hPa | 0 mm | - | - | - |
| 1777758307 | 22.78° C | 50% | 1019.5 hPa | 0 mm | - | - | - |
| 1777757409 | 22.78° C | 49% | 1019.6 hPa | 0 mm | - | - | - |
| 1777756523 | 22.78° C | 51% | 1019.9 hPa | 0 mm | - | - | - |
| 1777755614 | 23.33° C | 49% | 1020.1 hPa | 0 mm | - | - | - |
| 1777753807 | 23.33° C | 52% | 1020.3 hPa | 0 mm | - | - | - |
| 1777752911 | 22.78° C | 50% | 1020.4 hPa | 0 mm | - | - | - |
| 1777752014 | 22.22° C | 50% | 1020.6 hPa | 0 mm | - | - | - |
| 1777751115 | 22.22° C | 54% | 1020.7 hPa | 0 mm | - | - | - |
| 1777750219 | 22.22° C | 54% | 1020.7 hPa | 0 mm | - | - | - |
| 1777749314 | 22.22° C | 52% | 1020.8 hPa | 0 mm | - | - | - |
| 1777748419 | 21.67° C | 56% | 1020.9 hPa | 0 mm | - | - | - |
| 1777747516 | 21.11° C | 56% | 1021.1 hPa | 0 mm | - | - | - |
| 1777746616 | 21.11° C | 57% | 1021.3 hPa | 0 mm | - | - | - |
| 1777744812 | 21.11° C | 56% | 1021.9 hPa | 0 mm | - | - | - |
| 1777743913 | 20.56° C | 55% | 1022 hPa | 0 mm | - | - | - |
| 1777743018 | 20.56° C | 58% | 1022.2 hPa | 0 mm | - | - | - |
| 1777740313 | 18.89° C | 61% | 1022.3 hPa | 0 mm | - | - | - |
* Rain latest hour (hover to see other rain measurements)
** Current wind speed in m/s (hover to see current wind gust speed)